STARLINK-31081, 58632

Orbit data source: Space-Track

STARLINK-31081, 58632 is a payload satellite owned by SpaceX/Seattle (US) in LEO that was launched on Sat, 23 Dec 2023 UTC via an FALCON 9 launch vehicle from the Air Force Eastern Test Range (AFETR). Payload-class satellites include a variety of spacecraft equipped with specific instruments for various scientific and technological missions. These include communications satellites like Starlink; space stations such as the ISS; scientific satellites like the Hubble; Earth observation satellites from companies like Planet Labs, Umbra, and HawkEye 360; GPS; miniature CubeSats for education and research; and military/defense satellites.

Loading next visibility...
Identifier
58632, 2023-203Q
Orbit
LEO
Country
Flag of USUS
Related business
Manufacturer
SpaceX/Seattle
Mission
Operational Commercial Communications
Bus & Motor
STARLINK V2M, Unknown motor
Mass
730 kg wet, ~700 kg dry
Launch date (UTC)
2023-12-23 (2 years ago)
Launch vehicle
FALCON 9
Launch site
Air Force Eastern Test Range (AFETR)
Object type
Payload
Rocket body
Debris
Shape & HBR
Box + 2 Pan, 17.7 m
Radar Cross Section
33.884 m², Large (>1 m²)

Expand to show TLE details & history
Last TLE update: 2 days ago

TLE from 2 days ago
0 STARLINK-31081
1 58632U 23203Q   26171.16771485  .00000482  00000-0  27036-4 0  9996
2 58632  43.0036 211.8263 0001571 278.9342  81.1332 15.27576333140425
Epoch: 2026-06-20T04:01Z
TLE epoch observation values (Epoch: 2026-06-20T04:01:30.563Z)
Latitude
0.00001°
Longitude
-116.93725°
Altitude
482.67 km
Speed
7.626 km/s
True Right ascension
14h 07m 18s
True Declination
0° 00' 00"
Sunlit
Object was in full shadow at epoch
Visualization orbit readout
Latitude
Unknown
Longitude
Unknown
Altitude
Unknown
Speed
Unknown
Apparent Right ascension
Unknown
Apparent Declination
Unknown
Sunlit
N/A
Visualization observer readout
Local Sidereal Time
23:07:47
Azimuth
Unknown
Elevation
Unknown
Doppler factor
Unknown
Orbital elements
Apogee altitude
486.083 km
Perigee altitude
483.926 km
Semi-major axis
6,863.142 km
Eccentricity
0.00016
Inclination
43.0036°
RAAN
211.8263°
Arg. of periapsis
278.9342°
True anomaly
81.15099°
Mean anomaly
81.1332°
Eccentric anomaly
81.14209°
Mean motion
3.81732 °/min
Orbital period
94.31 mins
BSTAR
0.000027036
Loading maneuver chart data...
Computing Atmospheric mass density...
Loading historical data...
Loading historical data...
Loading historical data...
Loading historical data...
Loading historical data...
Loading historical data...
Loading historical data...

Documentation

Showing up to 5 results
|